Date String (YYYY-MM-DD hh:mm:ss) UTC,Instrument flags,Ambient pressure (hPa),Sample flow (lpm),Bypass flow (lpm),Sample temperature (°C),Ambient temperature (°C),ASC tube jacket temperature (°C),LED temperature (°C),Box temperature (°C),Sample RH (%),Span deviation,Mass concentration (μg/m³),Mass concentration (μg/m³),Mass concentration (μg/m³)
DateTimeUTC,F1_M11,P_M11,Q1_M11,Q2_M11,T1_M11,T2_M11,T3_M11,T4_M11,T5_M11,U1_M11,ZSPAN_M11,X0_M11,X2_M11,X1_M11
2021-11-21 13:00:00,,0835.5,5.00,0.00,22.8,22.0,00.0,31.8,24.6,13.0,0000.0,0003.18,0001.89,0001.56
2021-11-21 13:01:00,,0835.5,5.01,0.00,22.8,22.0,00.0,31.8,24.5,13.8,0000.0,0004.97,0002.11,0001.71
2021-11-21 13:02:00,,0835.5,5.00,0.00,22.8,22.0,00.0,31.8,24.6,13.9,0000.0,0006.14,0002.37,0001.86
2021-11-21 13:03:00,,0835.5,5.00,0.00,22.8,22.0,00.0,31.8,24.5,13.8,0000.0,0007.69,0002.70,0002.01
2021-11-21 13:04:00,,0835.5,4.99,0.00,22.8,22.0,00.0,31.8,24.5,14.1,0000.0,0008.76,0003.00,0002.18
2021-11-21 13:05:00,,0835.5,4.99,0.00,22.7,21.9,00.0,31.8,24.5,14.3,0000.0,0009.27,0003.26,0002.37
2021-11-21 13:06:00,,0835.6,5.00,0.00,22.7,21.9,00.0,31.7,24.4,14.4,0000.0,0009.98,0003.42,0002.57
2021-11-21 13:07:00,,0835.6,5.01,0.00,22.7,21.9,00.0,31.7,24.4,14.5,0000.0,0010.87,0003.61,0002.75
2021-11-21 13:08:00,,0835.6,4.99,0.00,22.7,21.9,00.0,31.7,24.4,14.4,0000.0,0011.33,0003.78,0002.88
2021-11-21 13:09:00,,0835.6,5.01,0.00,22.7,21.9,00.0,31.7,24.4,14.4,0000.0,0011.49,0003.95,0003.04
2021-11-21 13:10:00,,0835.6,5.01,0.00,22.7,21.9,00.0,31.7,24.4,14.4,0000.0,0011.93,0004.15,0003.18
2021-11-21 13:11:00,,0835.6,4.99,0.00,22.7,21.9,00.0,31.7,24.4,14.4,0000.0,0012.13,0004.24,0003.23
2021-11-21 13:12:00,,0835.6,5.00,0.00,22.7,21.9,00.0,31.7,24.4,14.4,0000.0,0011.97,0004.27,0003.22
2021-11-21 13:13:00,,0835.6,5.00,0.00,22.7,21.9,00.0,31.7,24.4,14.3,0000.0,0011.79,0004.29,0003.23
2021-11-21 13:14:00,,0835.7,5.00,0.00,22.7,21.8,00.0,31.7,24.4,14.2,0000.0,0011.05,0004.23,0003.24
2021-11-21 13:15:00,,0835.7,4.99,0.00,22.6,21.8,00.0,31.7,24.4,13.8,0000.0,0010.76,0004.18,0003.20
2021-11-21 13:16:00,,0835.8,5.01,0.00,22.6,21.8,00.0,31.7,24.4,13.8,0000.0,0011.42,0004.06,0003.16
2021-11-21 13:17:00,,0835.7,4.99,0.00,22.6,21.8,00.0,31.6,24.4,14.0,0000.0,0012.54,0004.01,0003.13
2021-11-21 13:18:00,,0835.8,5.00,0.00,22.6,21.8,00.0,31.6,24.4,14.1,0000.0,0012.63,0003.94,0003.11
2021-11-21 13:19:00,,0835.9,5.00,0.00,22.6,21.8,00.0,31.6,24.4,14.0,0000.0,0012.48,0003.89,0003.08
2021-11-21 13:20:00,,0835.9,5.00,0.00,22.6,21.8,00.0,31.6,24.3,14.0,0000.0,0012.70,0003.84,0003.04
2021-11-21 13:21:00,,0835.9,5.01,0.00,22.6,21.8,00.0,31.6,24.4,14.0,0000.0,0012.93,0003.78,0002.99
2021-11-21 13:22:00,,0835.9,5.01,0.00,22.6,21.8,00.0,31.6,24.3,14.1,0000.0,0013.04,0003.77,0002.97
2021-11-21 13:23:00,,0835.9,5.00,0.00,22.6,21.8,00.0,31.6,24.3,14.1,0000.0,0012.65,0003.76,0002.95
2021-11-21 13:24:00,,0835.9,5.00,0.00,22.6,21.8,00.0,31.6,24.3,14.1,0000.0,0012.59,0003.71,0002.91
2021-11-21 13:25:00,,0835.9,5.00,0.00,22.6,21.7,00.0,31.6,24.3,14.1,0000.0,0012.75,0003.76,0002.89
2021-11-21 13:26:00,,0836.0,4.99,0.00,22.6,21.7,00.0,31.6,24.3,14.1,0000.0,0012.22,0003.78,0002.94
2021-11-21 13:27:00,,0836.0,5.00,0.00,22.6,21.7,00.0,31.6,24.2,13.9,0000.0,0011.24,0003.79,0002.95
2021-11-21 13:28:00,,0836.0,5.01,0.00,22.5,21.7,00.0,31.6,24.2,13.6,0000.0,0009.64,0003.74,0002.92
2021-11-21 13:29:00,,0836.0,5.00,0.00,22.5,21.7,00.0,31.6,24.1,13.5,0000.0,0008.65,0003.72,0002.87
2021-11-21 13:30:00,,0836.0,4.99,0.00,22.5,21.7,00.0,31.6,24.2,13.5,0000.0,0008.50,0003.67,0002.82
2021-11-21 13:31:00,,0836.0,5.00,0.00,22.6,22.2,00.0,31.6,24.4,13.3,0000.0,0008.24,0003.61,0002.77
2021-11-21 13:32:00,,0836.0,5.01,0.00,22.7,22.9,00.0,31.7,24.6,13.2,0000.0,0007.73,0003.55,0002.73
2021-11-21 13:33:00,,0836.0,5.01,0.00,22.8,23.0,00.0,31.7,24.7,13.2,0000.0,0007.29,0003.48,0002.68
2021-11-21 13:34:00,,0836.1,5.00,0.00,22.8,22.8,00.0,31.7,24.7,13.1,0000.0,0006.63,0003.39,0002.64
2021-11-21 13:35:00,,0836.2,5.00,0.00,22.8,22.7,00.0,31.7,24.6,13.0,0000.0,0006.34,0003.33,0002.60
2021-11-21 13:36:00,,0836.2,4.99,0.00,22.8,22.5,00.0,31.7,24.6,13.0,0000.0,0005.89,0003.24,0002.53
2021-11-21 13:37:00,,0836.2,5.00,0.00,22.8,22.4,00.0,31.7,24.6,13.0,0000.0,0005.54,0003.16,0002.47
2021-11-21 13:38:00,,0836.2,5.01,0.00,22.8,22.3,00.0,31.7,24.5,12.9,0000.0,0005.50,0003.12,0002.41
2021-11-21 13:39:00,,0836.2,4.99,0.00,22.8,22.2,00.0,31.7,24.5,12.9,0000.0,0005.35,0003.08,0002.37
2021-11-21 13:40:00,,0836.2,5.00,0.00,22.8,22.2,00.0,31.7,24.5,12.9,0000.0,0005.56,0003.05,0002.35
2021-11-21 13:41:00,,0836.2,5.01,0.00,22.7,22.1,00.0,31.7,24.5,13.0,0000.0,0007.11,0002.99,0002.32
2021-11-21 13:42:00,,0836.2,4.98,0.00,22.7,22.1,00.0,31.7,24.5,12.9,0000.0,0007.14,0002.92,0002.29
2021-11-21 13:43:00,,0836.2,5.00,0.00,22.7,22.0,00.0,31.7,24.4,12.9,0000.0,0007.00,0002.87,0002.27
2021-11-21 13:44:00,,0836.2,5.00,0.00,22.7,22.0,00.0,31.7,24.4,13.0,0000.0,0006.97,0002.83,0002.24
2021-11-21 13:45:00,,0836.2,5.00,0.00,22.7,21.9,00.0,31.7,24.4,13.1,0000.0,0007.14,0002.86,0002.23
2021-11-21 13:46:00,,0836.2,4.99,0.00,22.7,21.9,00.0,31.7,24.4,13.4,0000.0,0006.87,0002.84,0002.24
2021-11-21 13:47:00,,0836.2,5.00,0.00,22.7,21.9,00.0,31.7,24.4,13.6,0000.0,0006.70,0002.89,0002.30
2021-11-21 13:48:00,,0836.2,5.01,0.00,22.7,21.9,00.0,31.7,24.4,13.4,0000.0,0006.78,0002.94,0002.33
2021-11-21 13:49:00,,0836.2,4.99,0.00,22.7,21.9,00.0,31.7,24.4,13.7,0000.0,0006.82,0003.02,0002.40
2021-11-21 13:50:00,,0836.2,5.00,0.00,22.7,21.9,00.0,31.7,24.4,13.7,0000.0,0006.90,0003.10,0002.48
2021-11-21 13:51:00,,0836.2,5.01,0.00,22.6,21.9,00.0,31.7,24.4,13.7,0000.0,0006.81,0003.13,0002.52
2021-11-21 13:52:00,,0836.2,4.99,0.00,22.6,21.8,00.0,31.7,24.3,13.8,0000.0,0005.25,0003.17,0002.59
2021-11-21 13:53:00,,0836.2,5.01,0.00,22.6,21.8,00.0,31.7,24.3,13.3,0000.0,0004.79,0003.21,0002.64
2021-11-21 13:54:00,,0836.2,4.99,0.00,22.6,21.8,00.0,31.7,24.3,13.4,0000.0,0005.23,0003.27,0002.68
2021-11-21 13:55:00,,0836.2,5.01,0.00,22.6,21.8,00.0,31.7,24.3,13.3,0000.0,0006.34,0003.33,0002.72
2021-11-21 13:56:00,,0836.2,5.00,0.00,22.6,21.8,00.0,31.6,24.3,13.0,0000.0,0006.19,0003.31,0002.72
2021-11-21 13:57:00,,0836.2,5.00,0.00,22.6,21.8,00.0,31.6,24.3,13.0,0000.0,0006.31,0003.29,0002.69
2021-11-21 13:58:00,,0836.2,5.01,0.00,22.6,21.7,00.0,31.6,24.3,13.0,0000.0,0006.14,0003.25,0002.62
2021-11-21 13:59:00,,0836.2,4.99,0.00,22.6,21.7,00.0,31.6,24.2,12.9,0000.0,0006.08,0003.22,0002.57
